Location: St. Louis
(38.6270°N, 90.1994°W)
Time: 08:13:06
(UTC-06:00)

SR - Pass Details

Date: 04 December 2021
Orbit: 582 x 872 km, 66.7° (Epoch: 21 January)

Event Time Altitude Azimuth Distance (km) Brightness Sun altitude
Rises 21:41:16 0° 168° (SSE) 3,041 - -57.9°
Reaches altitude 10° 21:44:22 10° 148° (SSE) 2,073 - -58.4°
Maximum altitude 21:47:19 17° 108° (ESE) 1,621 - -59.0°
Drops below altitude 10° 21:50:10 10° 68° (ENE) 1,987 - -59.5°
Sets 21:53:02 0° 48° (NE) 2,859 - -60.0°
